Location: Ferintosh
(52.7647°N, 112.9692°W)
Time: 15:48:27
(UTC+00:00)

Tiros 1 despin weight - Pass Details

Date: 30 May 2024
Orbit: 577 x 621 km, 48.2° (Epoch: 19 June)

Event Time Altitude Azimuth Distance (km) Brightness Sun altitude
Rises 06:22:29 0° 243° (WSW) 2,835 ? -14.0°
Reaches altitude 10° 06:24:53 10° 236° (SW) 1,926 ? -14.1°
Maximum altitude 06:29:00 40° 167° (SSE) 879 ? -14.2°
Drops below altitude 10° 06:33:05 10° 98° (E) 1,905 ? -14.4°
Sets 06:35:26 0° 91° (E) 2,800 ? -14.5°
